Flag for Germany Weather past 2 weeks in Dresden, Saxony, Germany

39 °F

Partly sunny.

Feels Like: 35 °F
Forecast: 28 / 40 °F
Wind: 6 mph from Southeast

Location: Dresden-Klotzsche

Current Time: Nov 27, 2015 at 4:32:07 PM

Latest Report: Nov 27, 2015 at 3:50 PM

Visibility: N/A

Pressure: 30.04 "Hg

Humidity: 75%

Dew point: 32 °F

Location of DresdenLocation

Historic Weather in Dresden — Graph


Dresden temperature yesterday

Maximum temperature yesterday: 39 °F (at 11:20 AM)
Minimum temperature yesterday: 36 °F (at 4:20 AM)
Average temperature yesterday: 38 °F

Past Weeks' High & Low Weather Summary

High59 °F (Nov 13, 1:50 PM)100% (Nov 14, 10:20 PM)30.33 "Hg (Nov 14, 10:20 PM)
Low27 °F (Nov 24, 2:20 AM)55% (Nov 18, 11:50 AM)29.36 "Hg (Nov 21, 12:20 PM)
Average43 °F83%29.88 "Hg
* Reported Nov 12 3:20 PM — Nov 27 3:20 PM, Dresden, Weather by CustomWeather, © 2015

Note: Actual official high and low records may vary slightly from our data, if they occured in-between our weather recording intervals... More about our weather records


Dresden weather history for previous 24 hours

Time TempWeatherWind HumidityBarometerVisibility
3:20 PM
Fri, Nov 27
39 °FPartly sunny.6 mph81%30.04 "HgN/A
2:50 PM39 °FPartly sunny.5 mph81%30.04 "HgN/A
2:20 PM41 °FBroken clouds.3 mph76%30.07 "HgN/A
1:50 PM41 °FBroken clouds.2 mph76%30.07 "HgN/A
1:20 PM41 °FPartly sunny.2 mph76%30.07 "HgN/A
12:50 PM39 °FBroken clouds.2 mph81%30.07 "Hg6 mi
12:20 PM41 °FScattered clouds.3 mph81%30.09 "Hg6 mi
11:50 AM41 °FPassing clouds.3 mph76%30.09 "Hg6 mi
11:20 AM39 °FPartly sunny.6 mph81%30.09 "Hg5 mi
10:50 AM39 °FPartly sunny.6 mph87%30.12 "Hg5 mi
10:20 AM37 °FPartly sunny.5 mph87%30.12 "Hg5 mi
9:50 AM37 °FPartly sunny.6 mph93%30.12 "Hg4 mi
9:20 AM36 °FPartly sunny.3 mph93%30.12 "Hg4 mi
8:50 AM36 °FFog.1 mph100%30.12 "Hg3 mi
7:50 AM36 °FFog.No wind93%30.12 "Hg3 mi
7:20 AM36 °FFog.3 mph93%30.12 "Hg3 mi
6:50 AM36 °FFog.5 mph93%30.12 "Hg3 mi
6:20 AM36 °FFog.3 mph100%30.12 "Hg2 mi
5:50 AM36 °FFog.5 mph93%30.12 "Hg2 mi
4:50 AM36 °FFog.3 mph100%30.12 "Hg2 mi
4:20 AM36 °FLow clouds.2 mph100%30.12 "Hg4 mi
3:50 AM36 °FLow clouds.5 mph93%30.12 "Hg5 mi
3:20 AM34 °FPassing clouds.5 mph100%30.12 "HgN/A
2:50 AM36 °FPassing clouds.3 mph93%30.12 "HgN/A
2:20 AM36 °FPassing clouds.2 mph93%30.12 "HgN/A
1:50 AM36 °FPassing clouds.2 mph93%30.12 "HgN/A
1:20 AM36 °FPassing clouds.3 mph93%30.12 "HgN/A
12:50 AM36 °FPassing clouds.2 mph93%30.12 "HgN/A
12:20 AM36 °FPassing clouds.5 mph93%30.12 "HgN/A
11:50 PM
Thu, Nov 26
36 °FPassing clouds.3 mph93%30.12 "HgN/A
11:20 PM36 °FPassing clouds.3 mph93%30.12 "HgN/A
10:50 PM37 °FPartly cloudy.3 mph87%30.12 "HgN/A
10:20 PM36 °FPassing clouds.5 mph93%30.12 "HgN/A
9:50 PM36 °FPassing clouds.3 mph93%30.12 "HgN/A
9:20 PM37 °FPassing clouds.2 mph87%30.09 "HgN/A
8:50 PM37 °FPartly cloudy.1 mph87%30.09 "HgN/A
8:20 PM37 °FPartly cloudy.3 mph93%30.09 "HgN/A
7:50 PM37 °FPassing clouds.5 mph93%30.09 "HgN/A
7:20 PM37 °FPartly cloudy.3 mph93%30.07 "HgN/A
6:50 PM37 °FPassing clouds.5 mph93%30.07 "HgN/A
6:20 PM37 °FPartly cloudy.5 mph100%30.04 "HgN/A
5:50 PM39 °FPassing clouds.6 mph93%30.04 "HgN/A
5:20 PM39 °FPartly cloudy.7 mph93%30.04 "Hg6 mi
4:50 PM39 °FLight rain. Partly cloudy.1 mph93%30.01 "Hg5 mi
4:20 PM39 °FLight rain. Partly cloudy.2 mph93%30.01 "Hg6 mi
Weather by CustomWeather, © 2015

See weather overviewHow to use our weather pages